| time (UTC) | temp C | wind direction | speed KPH | gust KPH | rain 1hr cm | rain 24hr cm | rain mn cm | humidity % | barometer mb |
| 20260510124600 | 7 | 191 | 9.7 | 19.3 | 0.00 | 0.03 | 0.00 | 76 | 1015.4 |
| 20260510123059 | 7 | 194 | 8.0 | 16.1 | 0.00 | 0.03 | 0.00 | 76 | 1015.4 |
| 20260510121558 | 6 | 194 | 8.0 | 11.3 | 0.00 | 0.03 | 0.00 | 75 | 1015.5 |
| 20260510120055 | 6 | 207 | 4.8 | 8.0 | 0.00 | 0.03 | 0.00 | 76 | 1015.5 |
| 20260510114555 | 6 | 200 | 1.6 | 8.0 | 0.00 | 0.03 | 0.00 | 76 | 1015.5 |
| 20260510113052 | 7 | 188 | 6.4 | 9.7 | 0.00 | 0.03 | 0.00 | 75 | 1015.6 |
| 20260510111552 | 7 | 202 | 8.0 | 14.5 | 0.00 | 0.03 | 0.00 | 76 | 1015.6 |
| 20260510110052 | 6 | 181 | 3.2 | 11.3 | 0.00 | 0.03 | 0.00 | 75 | 1015.7 |
| 20260510104559 | 6 | 146 | 3.2 | 9.7 | 0.00 | 0.03 | 0.00 | 75 | 1015.8 |
| 20260510103049 | 6 | 141 | 4.8 | 9.7 | 0.00 | 0.03 | 0.00 | 71 | 1015.7 |
| 20260510101552 | 5 | 237 | 3.2 | 4.8 | 0.00 | 0.03 | 0.00 | 66 | 1015.9 |
| 20260510100053 | 5 | 309 | 0.0 | 1.6 | 0.00 | 0.03 | 0.00 | 68 | 1016.0 |
| 20260510094556 | 4 | 309 | 1.6 | 4.8 | 0.00 | 0.03 | 0.00 | 66 | 1015.9 |
| 20260510093049 | 3 | 309 | 0.0 | 0.0 | 0.00 | 0.03 | 0.00 | 68 | 1015.9 |
| 20260510091543 | 3 | 309 | 1.6 | 4.8 | 0.00 | 0.03 | 0.00 | 69 | 1015.9 |
| 20260510090042 | 3 | 309 | 0.0 | 3.2 | 0.00 | 0.03 | 0.00 | 69 | 1016.0 |
| 20260510084556 | 3 | 309 | 1.6 | 6.4 | 0.00 | 0.03 | 0.00 | 71 | 1016.0 |
| 20260510083042 | 5 | 309 | 1.6 | 4.8 | 0.00 | 0.03 | 0.00 | 72 | 1015.9 |
| 20260510081536 | 5 | 309 | 3.2 | 6.4 | 0.00 | 0.03 | 0.00 | 75 | 1015.9 |
| 20260510080028 | 6 | 24 | 1.6 | 4.8 | 0.00 | 0.03 | 0.00 | 75 | 1015.8 |
| 20260510074524 | 7 | 23 | 1.6 | 4.8 | 0.00 | 0.03 | 0.00 | 75 | 1016.0 |
| 20260510073034 | 8 | 31 | 1.6 | 4.8 | 0.00 | 0.03 | 0.00 | 75 | 1016.0 |
| 20260510071520 | 8 | 51 | 3.2 | 6.4 | 0.00 | 0.03 | 0.00 | 74 | 1015.8 |
| 20260510070018 | 8 | 17 | 0.0 | 4.8 | 0.00 | 0.03 | 0.00 | 75 | 1015.8 |
| 20260510064515 | 8 | 32 | 4.8 | 8.0 | 0.00 | 0.03 | 0.00 | 74 | 1015.7 |
| 20260510063014 | 9 | 45 | 0.0 | 1.6 | 0.00 | 0.03 | 0.00 | 74 | 1015.7 |
| 20260510061513 | 9 | 43 | 0.0 | 6.4 | 0.00 | 0.03 | 0.00 | 74 | 1015.6 |
| 20260510060016 | 8 | 41 | 3.2 | 6.4 | 0.00 | 0.03 | 0.00 | 74 | 1015.7 |
| 20260510054509 | 9 | 40 | 3.2 | 6.4 | 0.00 | 0.03 | 0.03 | 74 | 1015.5 |
| 20260510053009 | 9 | 74 | 3.2 | 8.0 | 0.00 | 0.03 | 0.03 | 74 | 1015.5 |
| 20260510051507 | 9 | 152 | 0.0 | 3.2 | 0.00 | 0.03 | 0.03 | 74 | 1015.3 |
| 20260510050010 | 9 | 133 | 3.2 | 4.8 | 0.00 | 0.03 | 0.03 | 73 | 1015.3 |
| 20260510044505 | 9 | 133 | 0.0 | 3.2 | 0.00 | 0.03 | 0.03 | 72 | 1015.3 |
| 20260510043005 | 10 | 130 | 1.6 | 4.8 | 0.00 | 0.03 | 0.03 | 73 | 1015.2 |
| 20260510041504 | 10 | 124 | 1.6 | 4.8 | 0.00 | 0.03 | 0.03 | 73 | 1015.2 |
| 20260510040002 | 10 | 126 | 1.6 | 4.8 | 0.00 | 0.03 | 0.03 | 73 | 1015.1 |
| 20260510034502 | 10 | 126 | 1.6 | 6.4 | 0.00 | 0.03 | 0.03 | 73 | 1015.1 |
| 20260510033108 | 11 | 142 | 4.8 | 8.0 | 0.00 | 0.03 | 0.03 | 73 | 1014.8 |
| 20260510031606 | 11 | 130 | 1.6 | 6.4 | 0.00 | 0.03 | 0.03 | 73 | 1014.7 |
| 20260510030059 | 12 | 138 | 1.6 | 6.4 | 0.00 | 0.03 | 0.03 | 71 | 1014.4 |
| 20260510024557 | 12 | 113 | 3.2 | 6.4 | 0.00 | 0.03 | 0.03 | 70 | 1014.2 |
| 20260510023055 | 13 | 122 | 0.0 | 6.4 | 0.00 | 0.03 | 0.03 | 68 | 1014.1 |
| 20260510021555 | 13 | 121 | 4.8 | 8.0 | 0.03 | 0.03 | 0.03 | 66 | 1014.1 |
| 20260510020053 | 15 | 108 | 8.0 | 16.1 | 0.03 | 0.03 | 0.03 | 60 | 1014.1 |
| 20260510014555 | 14 | 108 | 4.8 | 11.3 | 0.03 | 0.03 | 0.03 | 59 | 1014.2 |
| 20260510013106 | 14 | 149 | 3.2 | 6.4 | 0.03 | 0.03 | 0.03 | 58 | 1014.4 |
| 20260510011551 | 15 | 272 | 1.6 | 16.1 | 0.00 | 0.00 | 0.00 | 59 | 1014.5 |
| 20260510010048 | 17 | 340 | 3.2 | 6.4 | 0.00 | 0.00 | 0.00 | 45 | 1014.1 |
| 20260510004547 | 17 | 238 | 0.0 | 0.0 | 0.00 | 0.00 | 0.00 | 38 | 1014.0 |
| 20260510003050 | 17 | 225 | 0.0 | 6.4 | 0.00 | 0.00 | 0.00 | 39 | 1013.7 |
| 20260510001547 | 18 | 168 | 1.6 | 4.8 | 0.00 | 0.00 | 0.00 | 39 | 1013.7 |
| 20260510000046 | 18 | 212 | 1.6 | 6.4 | 0.00 | 0.00 | 0.00 | 39 | 1013.7 |
| 20260509234546 | 18 | 246 | 6.4 | 11.3 | 0.00 | 0.00 | 0.00 | 38 | 1013.6 |
| 20260509233045 | 18 | 228 | 1.6 | 8.0 | 0.00 | 0.00 | 0.00 | 39 | 1013.6 |
| 20260509231553 | 18 | 125 | 0.0 | 4.8 | 0.00 | 0.00 | 0.00 | 39 | 1013.6 |
| 20260509230044 | 18 | 123 | 1.6 | 4.8 | 0.00 | 0.00 | 0.00 | 38 | 1013.5 |
| 20260509224543 | 18 | 267 | 0.0 | 9.7 | 0.00 | 0.00 | 0.00 | 38 | 1013.6 |
| 20260509223145 | 18 | 213 | 4.8 | 12.9 | 0.00 | 0.00 | 0.00 | 39 | 1013.7 |
| 20260509221542 | 18 | 321 | 0.0 | 8.0 | 0.00 | 0.00 | 0.00 | 36 | 1013.5 |
| 20260509220041 | 18 | 236 | 6.4 | 14.5 | 0.00 | 0.00 | 0.00 | 36 | 1013.7 |
| 20260509214540 | 18 | 180 | 3.2 | 8.0 | 0.00 | 0.00 | 0.00 | 36 | 1013.8 |
| 20260509213039 | 18 | 194 | 3.2 | 11.3 | 0.00 | 0.00 | 0.00 | 36 | 1013.8 |
| 20260509211545 | 17 | 125 | 4.8 | 9.7 | 0.00 | 0.00 | 0.00 | 36 | 1014.0 |
| 20260509210040 | 17 | 20 | 3.2 | 8.0 | 0.00 | 0.00 | 0.00 | 35 | 1013.9 |
| 20260509204536 | 17 | 257 | 3.2 | 12.9 | 0.00 | 0.00 | 0.00 | 35 | 1013.9 |
| 20260509203036 | 17 | 259 | 4.8 | 11.3 | 0.00 | 0.00 | 0.00 | 35 | 1013.8 |
| 20260509201535 | 17 | 279 | 4.8 | 9.7 | 0.00 | 0.00 | 0.00 | 35 | 1013.7 |
| 20260509200038 | 17 | 72 | 6.4 | 12.9 | 0.00 | 0.00 | 0.00 | 35 | 1013.7 |
| 20260509194535 | 17 | 67 | 3.2 | 11.3 | 0.00 | 0.00 | 0.00 | 35 | 1013.8 |
| 20260509193033 | 17 | 236 | 3.2 | 9.7 | 0.00 | 0.00 | 0.00 | 35 | 1013.9 |
| 20260509191532 | 17 | 333 | 4.8 | 11.3 | 0.00 | 0.00 | 0.00 | 36 | 1013.8 |
| 20260509190031 | 17 | 315 | 0.0 | 6.4 | 0.00 | 0.00 | 0.00 | 36 | 1013.8 |
| 20260509184538 | 17 | 268 | 4.8 | 8.0 | 0.00 | 0.00 | 0.00 | 36 | 1013.7 |
| 20260509183030 | 17 | 345 | 4.8 | 11.3 | 0.00 | 0.00 | 0.00 | 35 | 1013.7 |
| 20260509181527 | 17 | 244 | 0.0 | 11.3 | 0.00 | 0.00 | 0.00 | 36 | 1013.5 |
| 20260509180025 | 17 | 275 | 1.6 | 11.3 | 0.00 | 0.00 | 0.00 | 36 | 1013.4 |
| 20260509174532 | 17 | 278 | 4.8 | 12.9 | 0.00 | 0.00 | 0.00 | 37 | 1013.4 |
| 20260509173022 | 17 | 15 | 3.2 | 9.7 | 0.00 | 0.00 | 0.00 | 37 | 1013.3 |
| 20260509171521 | 17 | 17 | 0.0 | 9.7 | 0.00 | 0.00 | 0.00 | 37 | 1013.2 |
| 20260509170020 | 16 | 297 | 4.8 | 12.9 | 0.00 | 0.00 | 0.00 | 37 | 1013.2 |
| 20260509164519 | 16 | 325 | 4.8 | 11.3 | 0.00 | 0.00 | 0.00 | 38 | 1013.2 |
| 20260509163027 | 16 | 243 | 4.8 | 14.5 | 0.00 | 0.00 | 0.00 | 38 | 1013.1 |
| 20260509161518 | 16 | 298 | 8.0 | 12.9 | 0.00 | 0.00 | 0.00 | 38 | 1013.0 |
| 20260509160015 | 16 | 246 | 4.8 | 9.7 | 0.00 | 0.00 | 0.00 | 40 | 1012.8 |
| 20260509154513 | 16 | 317 | 1.6 | 9.7 | 0.00 | 0.00 | 0.00 | 39 | 1012.7 |
| 20260509153009 | 15 | 355 | 8.0 | 16.1 | 0.00 | 0.00 | 0.00 | 43 | 1012.6 |
| 20260509151506 | 14 | 355 | 3.2 | 14.5 | 0.00 | 0.00 | 0.00 | 49 | 1012.6 |
| 20260509150002 | 13 | 319 | 3.2 | 6.4 | 0.00 | 0.00 | 0.00 | 52 | 1012.6 |
| 20260509144604 | 12 | 282 | 1.6 | 8.0 | 0.00 | 0.00 | 0.00 | 55 | 1012.5 |
| 20260509143100 | 11 | 305 | 3.2 | 8.0 | 0.00 | 0.00 | 0.00 | 57 | 1012.5 |
| 20260509141608 | 11 | 296 | 3.2 | 8.0 | 0.00 | 0.00 | 0.00 | 58 | 1012.4 |
| 20260509140103 | 10 | 295 | 3.2 | 8.0 | 0.00 | 0.00 | 0.00 | 59 | 1012.3 |
| 20260509134557 | 10 | 300 | 3.2 | 8.0 | 0.00 | 0.00 | 0.00 | 60 | 1012.2 |
| 20260509133055 | 10 | 308 | 3.2 | 8.0 | 0.00 | 0.00 | 0.00 | 60 | 1012.1 |
| 20260509131553 | 10 | 348 | 1.6 | 8.0 | 0.00 | 0.00 | 0.00 | 60 | 1011.9 |
| 20260509130051 | 9 | 325 | 3.2 | 8.0 | 0.00 | 0.00 | 0.00 | 60 | 1011.9 |